Time,TemperatureF,DewpointF,PressureIn,WindDirection,WindDirectionDegrees,WindSpeedMPH,WindSpeedGustMPH,Humidity,HourlyPrecipIn,Conditions,Clouds,dailyrainin,SolarRadiationWatts/m^2,SoftwareType,DateUTC
2013-08-20 00:03:00,68.0,68.0,-100.00,East,99,0.0,0.0,99,0.00,,,0.85,0.000000,,2013-08-20 04:03:00,
2013-08-20 00:13:00,68.0,68.0,-100.00,East,99,0.0,0.0,99,0.00,,,0.85,0.000000,,2013-08-20 04:13:00,
2013-08-20 00:23:00,68.0,68.0,-100.00,East,99,0.0,0.0,99,0.00,,,0.85,0.000000,,2013-08-20 04:23:00,
2013-08-20 00:31:00,68.0,68.0,-100.00,NNW,345,0.0,0.0,100,0.00,,,0.85,0.000000,,2013-08-20 04:31:00,
2013-08-20 00:54:00,68.0,68.0,-100.00,NNW,345,0.0,0.0,100,0.00,,,0.85,0.000000,,2013-08-20 04:54:00,
2013-08-20 01:02:00,68.0,68.0,-100.00,NNW,345,0.0,0.0,100,0.00,,,0.85,0.000000,,2013-08-20 05:02:00,
2013-08-20 01:12:00,68.0,68.0,-100.00,NNW,345,0.0,0.0,100,0.00,,,0.85,0.000000,,2013-08-20 05:12:00,
2013-08-20 01:22:00,68.0,68.0,-100.00,NNW,345,0.0,0.0,100,0.00,,,0.85,0.000000,,2013-08-20 05:22:00,
2013-08-20 01:31:00,67.0,67.0,-100.00,East,91,0.0,0.0,100,0.00,,,0.83,0.000000,,2013-08-20 05:31:00,
2013-08-20 01:52:00,67.0,67.0,-100.00,East,91,0.0,0.0,100,0.00,,,0.83,0.000000,,2013-08-20 05:52:00,
2013-08-20 02:02:00,67.0,67.0,-100.00,East,91,0.0,0.0,100,0.00,,,0.83,0.000000,,2013-08-20 06:02:00,
2013-08-20 02:11:00,67.0,67.0,-100.00,East,91,0.0,0.0,100,0.00,,,0.83,0.000000,,2013-08-20 06:11:00,
2013-08-20 02:22:00,67.0,67.0,-100.00,East,91,0.0,0.0,100,0.00,,,0.83,0.000000,,2013-08-20 06:22:00,
2013-08-20 02:31:00,67.0,67.0,-100.00,ENE,70,0.0,0.0,100,0.00,,,0.80,0.000000,,2013-08-20 06:31:00,
2013-08-20 02:52:00,67.0,67.0,-100.00,ENE,70,0.0,0.0,100,0.00,,,0.80,0.000000,,2013-08-20 06:52:00,
2013-08-20 03:01:00,67.0,67.0,-100.00,ENE,70,0.0,0.0,100,0.00,,,0.80,0.000000,,2013-08-20 07:01:00,
2013-08-20 03:11:00,67.0,67.0,-100.00,ENE,70,0.0,0.0,100,0.00,,,0.80,0.000000,,2013-08-20 07:11:00,
2013-08-20 03:22:00,67.0,67.0,-100.00,ENE,70,0.0,0.0,100,0.00,,,0.80,0.000000,,2013-08-20 07:22:00,
2013-08-20 03:31:00,67.0,67.0,-100.00,WNW,294,0.0,0.0,100,0.00,,,0.75,0.000000,,2013-08-20 07:31:00,
2013-08-20 03:52:00,67.0,67.0,-100.00,WNW,294,0.0,0.0,100,0.00,,,0.75,0.000000,,2013-08-20 07:52:00,
2013-08-20 04:02:00,67.0,67.0,-100.00,WNW,294,0.0,0.0,100,0.00,,,0.75,0.000000,,2013-08-20 08:02:00,
2013-08-20 04:11:00,67.0,67.0,-100.00,WNW,294,0.0,0.0,100,0.00,,,0.75,0.000000,,2013-08-20 08:11:00,
2013-08-20 04:22:00,67.0,67.0,-100.00,WNW,294,0.0,0.0,100,0.00,,,0.75,0.000000,,2013-08-20 08:22:00,
2013-08-20 04:31:00,68.0,68.0,-100.00,NE,35,0.0,0.0,100,0.00,,,0.73,0.000000,,2013-08-20 08:31:00,
2013-08-20 04:52:00,68.0,68.0,-100.00,NE,35,0.0,0.0,100,0.00,,,0.73,0.000000,,2013-08-20 08:52:00,
2013-08-20 05:01:00,68.0,68.0,-100.00,NE,35,0.0,0.0,100,0.00,,,0.73,0.000000,,2013-08-20 09:01:00,
2013-08-20 05:11:00,68.0,68.0,-100.00,NE,35,0.0,0.0,100,0.00,,,0.73,0.000000,,2013-08-20 09:11:00,
2013-08-20 05:21:00,68.0,68.0,-100.00,NE,35,0.0,0.0,100,0.00,,,0.73,0.000000,,2013-08-20 09:21:00,
2013-08-20 05:31:00,68.0,68.0,-100.00,ESE,112,0.0,0.0,100,0.00,,,0.65,0.000000,,2013-08-20 09:31:00,
2013-08-20 05:53:00,68.0,68.0,-100.00,ESE,112,0.0,0.0,100,0.00,,,0.65,0.000000,,2013-08-20 09:53:00,
2013-08-20 06:04:00,68.0,68.0,-100.00,ESE,112,0.0,0.0,100,0.00,,,0.65,0.000000,,2013-08-20 10:04:00,
2013-08-20 06:12:00,68.0,68.0,-100.00,ESE,112,0.0,0.0,100,0.00,,,0.65,0.000000,,2013-08-20 10:12:00,
2013-08-20 06:23:00,68.0,68.0,-100.00,ESE,112,0.0,0.0,100,0.00,,,0.65,0.000000,,2013-08-20 10:23:00,
2013-08-20 06:31:00,67.0,67.0,-100.00,East,92,0.0,0.0,100,0.00,,,0.64,0.000000,,2013-08-20 10:31:00,
2013-08-20 06:52:00,67.0,67.0,-100.00,East,92,0.0,0.0,100,0.00,,,0.64,0.000000,,2013-08-20 10:52:00,
2013-08-20 07:02:00,67.0,67.0,-100.00,East,92,0.0,0.0,100,0.00,,,0.64,0.000000,,2013-08-20 11:02:00,
2013-08-20 07:11:00,67.0,67.0,-100.00,East,92,0.0,0.0,100,0.00,,,0.64,0.000000,,2013-08-20 11:11:00,
2013-08-20 07:22:00,67.0,67.0,-100.00,East,92,0.0,0.0,100,0.00,,,0.64,0.000000,,2013-08-20 11:22:00,
2013-08-20 07:31:00,67.0,67.0,-100.00,NNE,30,0.0,0.0,100,0.00,,,0.64,13.000000,,2013-08-20 11:31:00,
2013-08-20 07:52:00,67.0,67.0,-100.00,NNE,30,0.0,0.0,100,0.00,,,0.64,13.000000,,2013-08-20 11:52:00,
2013-08-20 08:01:00,67.0,67.0,-100.00,NNE,30,0.0,0.0,100,0.00,,,0.64,13.000000,,2013-08-20 12:01:00,
2013-08-20 08:12:00,67.0,67.0,-100.00,NNE,30,0.0,0.0,100,0.00,,,0.64,13.000000,,2013-08-20 12:12:00,
2013-08-20 08:21:00,67.0,67.0,-100.00,NNE,30,0.0,0.0,100,0.00,,,0.64,13.000000,,2013-08-20 12:21:00,
2013-08-20 08:31:00,69.0,69.0,-100.00,NNE,14,0.0,0.0,100,0.00,,,0.64,82.000000,,2013-08-20 12:31:00,
2013-08-20 08:52:00,69.0,69.0,-100.00,NNE,14,0.0,0.0,100,0.00,,,0.64,82.000000,,2013-08-20 12:52:00,
2013-08-20 09:02:00,69.0,69.0,-100.00,NNE,14,0.0,0.0,100,0.00,,,0.64,82.000000,,2013-08-20 13:02:00,
2013-08-20 09:11:00,69.0,69.0,-100.00,NNE,14,0.0,0.0,100,0.00,,,0.64,82.000000,,2013-08-20 13:11:00,
2013-08-20 09:22:00,69.0,69.0,-100.00,NNE,14,0.0,0.0,100,0.00,,,0.64,82.000000,,2013-08-20 13:22:00,
2013-08-20 09:31:00,72.0,71.0,-100.00,West,259,0.0,2.0,97,0.00,,,0.64,162.000000,,2013-08-20 13:31:00,
2013-08-20 09:52:00,72.0,71.0,-100.00,West,259,0.0,2.0,97,0.00,,,0.64,162.000000,,2013-08-20 13:52:00,
2013-08-20 10:02:00,72.0,71.0,-100.00,West,259,0.0,2.0,97,0.00,,,0.64,162.000000,,2013-08-20 14:02:00,
2013-08-20 10:11:00,72.0,71.0,-100.00,West,259,0.0,2.0,97,0.00,,,0.64,162.000000,,2013-08-20 14:11:00,
2013-08-20 10:22:00,72.0,71.0,-100.00,West,259,0.0,2.0,97,0.00,,,0.64,162.000000,,2013-08-20 14:22:00,
2013-08-20 10:31:00,74.0,71.0,-100.00,NNW,335,0.0,2.0,90,0.00,,,0.33,220.000000,,2013-08-20 14:31:00,
2013-08-20 10:52:00,74.0,71.0,-100.00,NNW,335,0.0,2.0,90,0.00,,,0.33,220.000000,,2013-08-20 14:52:00,
2013-08-20 11:02:00,74.0,71.0,-100.00,NNW,335,0.0,2.0,90,0.00,,,0.33,220.000000,,2013-08-20 15:02:00,
2013-08-20 11:11:00,74.0,71.0,-100.00,NNW,335,0.0,2.0,90,0.00,,,0.33,220.000000,,2013-08-20 15:11:00,
2013-08-20 11:22:00,74.0,71.0,-100.00,NNW,335,0.0,2.0,90,0.00,,,0.33,220.000000,,2013-08-20 15:22:00,
2013-08-20 11:31:00,76.0,70.0,-100.00,NNW,341,0.0,0.0,82,0.00,,,0.20,241.000000,,2013-08-20 15:31:00,
2013-08-20 11:54:00,76.0,70.0,-100.00,NNW,341,0.0,0.0,82,0.00,,,0.20,241.000000,,2013-08-20 15:54:00,
2013-08-20 12:04:00,76.0,70.0,-100.00,NNW,341,0.0,0.0,82,0.00,,,0.20,241.000000,,2013-08-20 16:04:00,
2013-08-20 12:15:00,76.0,70.0,-100.00,NNW,341,0.0,0.0,82,0.00,,,0.20,241.000000,,2013-08-20 16:15:00,
2013-08-20 12:30:00,-999.0,-99.9,-100.00,NNW,341,0.0,0.0,82,0.00,,,0.20,241.000000,,2013-08-20 16:30:00,
2013-08-20 12:31:00,78.0,71.0,-100.00,NNW,333,0.0,0.0,78,0.00,,,0.14,312.000000,,2013-08-20 16:31:00,
2013-08-20 12:53:00,78.0,71.0,-100.00,NNW,333,0.0,0.0,78,0.00,,,0.14,312.000000,,2013-08-20 16:53:00,
2013-08-20 13:03:00,78.0,71.0,-100.00,NNW,333,0.0,0.0,78,0.00,,,0.14,312.000000,,2013-08-20 17:03:00,
2013-08-20 13:12:00,78.0,71.0,-100.00,NNW,333,0.0,0.0,78,0.00,,,0.14,312.000000,,2013-08-20 17:12:00,
2013-08-20 13:24:00,78.0,71.0,-100.00,NNW,333,0.0,0.0,78,0.00,,,0.14,312.000000,,2013-08-20 17:24:00,
2013-08-20 13:31:00,79.0,69.0,-100.00,West,270,1.0,5.0,71,0.00,,,0.00,368.000000,,2013-08-20 17:31:00,
2013-08-20 13:52:00,79.0,69.0,-100.00,West,270,1.0,5.0,71,0.00,,,0.00,368.000000,,2013-08-20 17:52:00,
2013-08-20 14:02:00,79.0,69.0,-100.00,West,270,1.0,5.0,71,0.00,,,0.00,368.000000,,2013-08-20 18:02:00,
2013-08-20 14:12:00,79.0,69.0,-100.00,West,270,1.0,5.0,71,0.00,,,0.00,368.000000,,2013-08-20 18:12:00,
2013-08-20 14:22:00,79.0,69.0,-100.00,West,270,1.0,5.0,71,0.00,,,0.00,368.000000,,2013-08-20 18:22:00,
2013-08-20 14:31:00,79.0,71.0,-100.00,SSW,192,1.0,2.0,77,0.00,,,0.00,291.000000,,2013-08-20 18:31:00,
2013-08-20 14:52:00,79.0,71.0,-100.00,SSW,192,1.0,2.0,77,0.00,,,0.00,291.000000,,2013-08-20 18:52:00,
2013-08-20 15:01:00,79.0,71.0,-100.00,SSW,192,1.0,2.0,77,0.00,,,0.00,291.000000,,2013-08-20 19:01:00,
2013-08-20 15:11:00,79.0,71.0,-100.00,SSW,192,1.0,2.0,77,0.00,,,0.00,291.000000,,2013-08-20 19:11:00,
2013-08-20 15:22:00,79.0,71.0,-100.00,SSW,192,1.0,2.0,77,0.00,,,0.00,291.000000,,2013-08-20 19:22:00,
2013-08-20 15:31:00,79.0,71.0,-100.00,SSE,151,0.0,4.0,76,0.00,,,0.00,356.000000,,2013-08-20 19:31:00,
2013-08-20 15:53:00,79.0,71.0,-100.00,SSE,151,0.0,4.0,76,0.00,,,0.00,356.000000,,2013-08-20 19:53:00,
2013-08-20 16:03:00,79.0,71.0,-100.00,SSE,151,0.0,4.0,76,0.00,,,0.00,356.000000,,2013-08-20 20:03:00,
2013-08-20 16:12:00,79.0,71.0,-100.00,SSE,151,0.0,4.0,76,0.00,,,0.00,356.000000,,2013-08-20 20:12:00,
2013-08-20 16:22:00,79.0,71.0,-100.00,SSE,151,0.0,4.0,76,0.00,,,0.00,356.000000,,2013-08-20 20:22:00,
2013-08-20 16:31:00,80.0,72.0,-100.00,ESE,116,2.0,3.0,76,0.00,,,0.00,325.000000,,2013-08-20 20:31:00,
2013-08-20 16:52:00,80.0,72.0,-100.00,ESE,116,2.0,3.0,76,0.00,,,0.00,325.000000,,2013-08-20 20:52:00,
2013-08-20 17:03:00,80.0,72.0,-100.00,ESE,116,2.0,3.0,76,0.00,,,0.00,325.000000,,2013-08-20 21:03:00,
2013-08-20 17:11:00,80.0,72.0,-100.00,ESE,116,2.0,3.0,76,0.00,,,0.00,325.000000,,2013-08-20 21:11:00,
2013-08-20 17:22:00,80.0,72.0,-100.00,ESE,116,2.0,3.0,76,0.00,,,0.00,325.000000,,2013-08-20 21:22:00,
2013-08-20 17:31:00,81.0,72.0,-100.00,ENE,70,2.0,4.0,74,0.00,,,0.00,296.000000,,2013-08-20 21:31:00,
2013-08-20 18:14:00,81.0,72.0,-100.00,ENE,70,2.0,4.0,74,0.00,,,0.00,296.000000,,2013-08-20 22:14:00,
2013-08-20 18:24:00,81.0,72.0,-100.00,ENE,70,2.0,4.0,74,0.00,,,0.00,296.000000,,2013-08-20 22:24:00,
2013-08-20 18:31:00,79.0,72.0,-100.00,ENE,76,0.0,3.0,78,0.00,,,0.00,184.000000,,2013-08-20 22:31:00,
2013-08-20 18:54:00,79.0,72.0,-100.00,ENE,76,0.0,3.0,78,0.00,,,0.00,184.000000,,2013-08-20 22:54:00,
2013-08-20 19:03:00,79.0,72.0,-100.00,ENE,76,0.0,3.0,78,0.00,,,0.00,184.000000,,2013-08-20 23:03:00,
2013-08-20 19:12:00,79.0,72.0,-100.00,ENE,76,0.0,3.0,78,0.00,,,0.00,184.000000,,2013-08-20 23:12:00,
2013-08-20 19:22:00,79.0,72.0,-100.00,ENE,76,0.0,3.0,78,0.00,,,0.00,184.000000,,2013-08-20 23:22:00,
2013-08-20 19:31:00,75.0,73.0,-100.00,ESE,115,0.0,2.0,92,0.00,,,0.00,57.000000,,2013-08-20 23:31:00,
2013-08-20 19:53:00,75.0,73.0,-100.00,ESE,115,0.0,2.0,92,0.00,,,0.00,57.000000,,2013-08-20 23:53:00,
2013-08-20 20:02:00,75.0,73.0,-100.00,ESE,115,0.0,2.0,92,0.00,,,0.00,57.000000,,2013-08-21 00:02:00,
2013-08-20 20:12:00,75.0,73.0,-100.00,ESE,115,0.0,2.0,92,0.00,,,0.00,57.000000,,2013-08-21 00:12:00,
2013-08-20 20:23:00,75.0,73.0,-100.00,ESE,115,0.0,2.0,92,0.00,,,0.00,57.000000,,2013-08-21 00:23:00,
2013-08-20 20:31:00,73.0,72.0,-100.00,SE,139,0.0,0.0,96,0.00,,,0.00,10.000000,,2013-08-21 00:31:00,
2013-08-20 20:52:00,73.0,72.0,-100.00,SE,139,0.0,0.0,96,0.00,,,0.00,10.000000,,2013-08-21 00:52:00,
2013-08-20 21:02:00,73.0,72.0,-100.00,SE,139,0.0,0.0,96,0.00,,,0.00,10.000000,,2013-08-21 01:02:00,
2013-08-20 21:11:00,73.0,72.0,-100.00,SE,139,0.0,0.0,96,0.00,,,0.00,10.000000,,2013-08-21 01:11:00,
2013-08-20 21:22:00,73.0,72.0,-100.00,SE,139,0.0,0.0,96,0.00,,,0.00,10.000000,,2013-08-21 01:22:00,
2013-08-20 21:31:00,71.0,70.0,-100.00,SE,136,0.0,0.0,98,0.00,,,0.00,0.000000,,2013-08-21 01:31:00,
2013-08-20 21:52:00,71.0,70.0,-100.00,SE,136,0.0,0.0,98,0.00,,,0.00,0.000000,,2013-08-21 01:52:00,
2013-08-20 22:02:00,71.0,70.0,-100.00,SE,136,0.0,0.0,98,0.00,,,0.00,0.000000,,2013-08-21 02:02:00,
2013-08-20 22:12:00,71.0,70.0,-100.00,SE,136,0.0,0.0,98,0.00,,,0.00,0.000000,,2013-08-21 02:12:00,
2013-08-20 22:22:00,71.0,70.0,-100.00,SE,136,0.0,0.0,98,0.00,,,0.00,0.000000,,2013-08-21 02:22:00,
2013-08-20 22:31:00,71.0,71.0,-100.00,SE,125,0.0,0.0,99,0.00,,,0.00,0.000000,,2013-08-21 02:31:00,
2013-08-20 22:52:00,71.0,71.0,-100.00,SE,125,0.0,0.0,99,0.00,,,0.00,0.000000,,2013-08-21 02:52:00,
2013-08-20 23:02:00,71.0,71.0,-100.00,SE,125,0.0,0.0,99,0.00,,,0.00,0.000000,,2013-08-21 03:02:00,
2013-08-20 23:12:00,71.0,71.0,-100.00,SE,125,0.0,0.0,99,0.00,,,0.00,0.000000,,2013-08-21 03:12:00,
2013-08-20 23:23:00,71.0,71.0,-100.00,SE,125,0.0,0.0,99,0.00,,,0.00,0.000000,,2013-08-21 03:23:00,
2013-08-20 23:31:00,70.0,70.0,-100.00,ESE,113,0.0,0.0,99,0.00,,,0.00,0.000000,,2013-08-21 03:31:00,
2013-08-20 23:55:00,70.0,70.0,-100.00,ESE,113,0.0,0.0,99,0.00,,,0.00,0.000000,,2013-08-21 03:55:00,